Location: El Centro
(32.7920°N, 115.5620°W)
Time: 11:05:18
(UTC-07:00)

Hamsat - Visible Passes

Search period start: 28 May 2016 00:00
Search period end: 07 June 2016 00:00
Orbit: 587 x 619 km, 97.6° (Epoch: 27 May)

Date Brightness Start Highest point End Pass type
(mag) Time Alt. Az. Time Alt. Az. Time Alt. Az.
29 May ? 04:13:49 10° ENE 04:15:51 13° E 04:17:53 10° ESE visible
30 May ? 04:25:01 10° NE 04:28:03 18° E 04:31:03 10° SE visible
31 May ? 04:36:37 10° NE 04:40:13 25° E 04:43:49 10° SSE visible
01 Jun ? 04:48:23 10° NNE 04:52:23 35° E 04:56:21 10° SSE visible
02 Jun ? 05:00:18 10° NNE 05:04:31 51° E 05:08:42 10° S visible
06 Jun ? 04:14:43 10° ENE 04:16:57 14° E 04:19:09 10° SE visible
